Weather Roundup
Issued by NWS Chicago, IL

Home | Current Version | Previous Version | Graphics & Text | Print | Product List | Glossary On
Versions: 1 2 3 4 5 6 7 8 9 10 11 12 13 14 15 16 17 18 19 20 21 22 23 24 25 26 27 28 29 30 31 32 33 34 35 36 37 38 39 40 41 42 43 44 45 46 47 48 49 50
000
NZUS59 KLOT 300706
HRRLOT

CHICAGO AREA WEATHER ROUNDUP
NATIONAL WEATHER SERVICE CHICAGO/ROMEOVILLE IL
200 AM CDT WED JUL 30 2014

NOTE: "FAIR" INDICATES FEW OR NO CLOUDS BELOW 12,000 FEET WITH NO
SIGNIFICANT WEATHER AND/OR OBSTRUCTIONS TO VISIBILITY.

* THESE STATIONS ARE NOT UNDER NWS QUALITY CONTROL. THEY ALSO MAY NOT
  REPORT WEATHER SUCH AS PRECIPITATION OR FOG.

ILZ005-006-012>014-019>023-300800-
NORTHEAST ILLINOIS

CITY           SKY/WX    TMP DP  RH WIND       PRES   REMARKS
OHARE          PTCLDY    61  54  77 W8        30.00F
MIDWAY         PTCLDY    64  56  75 SW3       30.01S
AURORA         PTCLDY    58  55  90 SW3       30.02F
LANSING*       CLEAR     59  55  88 W3        30.01S
JOLIET*        CLEAR     56  53  91 CALM      30.03S
WAUKEGAN       PTCLDY    58  55  90 VRB3      29.99F
DUPAGE AIRPORT PTCLDY    59  55  87 CALM      30.01F
WHEELING       PTCLDY    62  58  86 W3        30.02S
KANKAKEE*      PTCLDY    61  60  94 W3        30.03F
MORRIS*        CLEAR     61  60  97 CALM      30.02F
LEWIS AIRPORT* CLEAR     58  55  89 W6        30.02F
NORTHERLY IS     N/A     64  56  75 W2          N/A
$$

WIZ051-052-058>065-066-070>072-300800-
SOUTHEAST WISCONSIN

CITY           SKY/WX    TMP DP  RH WIND       PRES   REMARKS
MILWAUKEE      PTCLDY    60  55  83 W7        30.00S
KENOSHA*       CLEAR     56  54  93 W5        30.00F
RACINE*        MOCLDY    59  56  89 W6        30.01S
BURLINGTON     CLEAR     54  53  97 SW3       30.01S
WAUKESHA       CLEAR     54  52  94 CALM      30.01F
WEST BEND      CLOUDY    55  52  88 W6        30.00S
$$

INZ001>003-010>013-019-020-300800-
NORTHWEST INDIANA

CITY           SKY/WX    TMP DP  RH WIND       PRES   REMARKS
GARY*          PTCLDY    61  59  91 W3        30.01S
MICHIGAN CITY* NOT AVBL
RENSSELAER*    NOT AVBL
VALPARAISO     MOCLDY    61  58  90 SW5       30.01S
$$

LMZ740>746-300800-
SOUTHERN LAKE MICHIGAN

STATION/POSITION TIME  SKY/WX   TEMP WIND        PRES    VSBY
                                AIR  DIR/SP/G
                 (UTC)          (F)  (DEG/KT/KT) (MB)    (MI)
HARRISON CRIB    0700            63  330/  1/  1   N/A
BURNHAM HARBOR   0700            64  240/  2/  6   N/A
CALUMET HARBOR   0700            63  210/  2/  3 1015.0R
BURNS HARBOR     NOT AVBL
MICHIGAN CITY    0700            63  190/  3/  4   N/A
$$

ABBREVIATIONS USED IN REMARKS
   TC - TEMPERATURE IN CELSIUS
  WCI - WIND CHILL INDEX
   HX - HEAT INDEX
  VSB - VISIBILITY
$$



USA.gov is the U.S. government's official web portal to all federal, state and local government web resources and services.